[[{"header":{"parameterUnit":"m.s-1","parameterCategory":1,"la1":30.2991,"la2":30.254,"lo1":-89.0895,"lo2":-89.0444,"dy":0.0017,"dx":0.0017,"nx":28,"ny":28,"refTime":"2024-05-08T03:00:00:Z","depth":0,"parameterNumber":2,"parameterNumberName":"U-component_of_WINDS"},"data":[0,0,0,0,0,0,0,0,0,0,0,0,0,0,0,0,0,0,0,0,0,0,0,0,0,0,0,0,0,0,0,0,0,0,0,0,0,0,0,0,0,0,0,0,0,0,0,0,0,0,0,0,0,0,0,0,0,0,-1.0385,-1.0386,0,-1.0426,-1.0426,-1.0427,-1.0443,-1.0443,-1.0443,-1.0443,-1.0486,-1.0487,-1.0489,0,0,0,0,0,0,0,0,0,0,0,0,0,-1.0324,-1.0325,-1.0385,-1.0386,-1.0386,-1.0426,-1.0426,-1.0427,-1.0443,-1.0443,-1.0443,-1.0443,-1.0486,-1.0487,-1.0489,0,0,0,0,0,0,0,0,0,0,0,0,0,-1.0356,-1.0325,-1.0385,-1.0399,-1.0401,-1.0426,-1.0426,-1.0427,-1.0443,-1.0443,-1.0443,-1.0443,-1.0485,-1.0487,-1.0489,-1.0504,0,0,-1.0495,-1.0495,0,0,0,0,0,0,0,0,-1.0354,-1.0358,-1.0396,-1.0398,-1.04,-1.0429,-1.0421,-1.0453,-1.0443,-1.0427,-1.0443,-1.0443,-1.0467,-1.0471,-1.0479,-1.0506,-1.0507,-1.0495,-1.0496,-1.0497,-1.0497,0,0,0,0,0,0,0,-1.0352,-1.0357,-1.0401,-1.0397,-1.0399,-1.0404,-1.0408,-1.0427,-1.0448,-1.0428,-1.043,-1.0434,-1.0468,-1.0477,-1.048,-1.0508,-1.0495,-1.0496,-1.0498,-1.0498,-1.055,-1.0551,0,0,0,0,0,0,-1.0347,-1.0355,-1.04,-1.0403,-1.0376,-1.0405,-1.041,-1.042,-1.0447,-1.0451,-1.0434,-1.0435,-1.0474,-1.0478,-1.0481,-1.0501,-1.0497,-1.0498,-1.05,-1.055,-1.0551,-1.0551,0,0,0,0,0,0,-1.0346,-1.0351,-1.0398,-1.0379,-1.0385,-1.0406,-1.0417,-1.0421,-1.0429,-1.0452,-1.0456,-1.0439,-1.0474,-1.0479,-1.0498,-1.0503,-1.0499,-1.0501,-1.055,-1.055,-1.0551,-1.054,0,0,0,0,0,0,-1.0344,-1.035,-1.0355,-1.0379,-1.0386,-1.0414,-1.0418,-1.0422,-1.0432,-1.0433,-1.0457,-1.0461,-1.0474,-1.0495,-1.05,-1.0505,-1.0502,-1.055,-1.055,-1.0551,-1.054,-1.054,-1.054,0,0,0,0,0,-1.0342,-1.0351,-1.0356,-1.0361,-1.0393,-1.0414,-1.0418,-1.0432,-1.0433,-1.0439,-1.0453,-1.0461,-1.0502,-1.0497,-1.0503,-1.0509,-1.0549,-1.055,-1.0551,-1.054,-1.054,-1.054,0,0,0,0,0,0,-1.0328,-1.0354,-1.036,-1.0377,-1.0393,-1.0416,-1.0424,-1.0432,-1.0448,-1.0448,-1.0466,-1.0471,-1.0489,-1.0501,-1.0495,-1.0525,-1.0526,-1.0528,-1.0516,-1.0517,-1.0517,-1.0513,-1.0504,0,0,0,0,0,-1.0327,-1.0341,-1.0363,-1.0376,-1.0384,-1.0403,-1.0412,-1.0422,-1.0439,-1.0446,-1.0462,-1.048,-1.0497,-1.0507,-1.0524,-1.0542,-1.0548,-1.0549,-1.0549,-1.0549,-1.055,-1.0562,-1.0563,-1.0553,-1.0553,-1.0553,0,0,-1.0325,-1.0341,-1.0349,-1.0374,-1.0388,-1.0402,-1.0408,-1.0424,-1.0435,-1.0449,-1.0468,-1.048,-1.0501,-1.052,-1.0529,-1.053,-1.0554,-1.055,-1.0549,-1.0551,-1.0562,-1.0563,-1.0564,-1.0553,-1.0553,-1.0553,0,0,-1.0329,-1.0342,-1.0355,-1.0368,-1.0389,-1.0401,-1.0404,-1.0427,-1.0436,-1.0455,-1.0466,-1.048,-1.0509,-1.0523,-1.0534,-1.0545,-1.0553,-1.055,-1.055,-1.0561,-1.0562,-1.0562,-1.0567,-1.0568,-1.0551,-1.0551,-1.0551,0,-1.0324,-1.0346,-1.036,-1.0375,-1.0386,-1.04,-1.0413,-1.0426,-1.0451,-1.0459,-1.046,-1.0496,-1.0511,-1.0534,-1.0537,-1.0545,-1.055,-1.0547,-1.056,-1.0561,-1.0562,-1.0566,-1.0568,-1.0551,-1.0551,-1.0551,-1.0551,0,-1.0339,-1.0354,-1.0362,-1.0386,-1.0398,-1.0412,-1.043,-1.044,-1.0449,-1.0462,-1.0482,-1.0501,-1.0522,-1.0528,-1.0537,-1.0552,-1.0553,-1.0557,-1.0558,-1.0562,-1.0567,-1.0568,-1.055,-1.055,-1.0551,-1.0551,0,0,-1.0335,-1.0367,-1.0369,-1.0381,-1.0405,-1.0417,-1.0432,-1.0453,-1.0462,-1.0479,-1.0493,-1.0517,-1.0521,-1.0534,-1.0545,-1.0554,-1.0562,-1.0557,-1.0558,-1.0558,-1.0582,-1.0578,-1.058,-1.0568,-1.0568,-1.0568,-1.058,0,-1.0342,-1.0369,-1.0383,-1.0404,-1.0419,-1.0433,-1.0446,-1.0463,-1.0475,-1.049,-1.0505,-1.0522,-1.0526,-1.0533,-1.0544,-1.0559,-1.0567,-1.0558,-1.0581,-1.0582,-1.0575,-1.0582,-1.0578,-1.0588,-1.0582,-1.0582,-1.0582,0,-1.0354,-1.0371,-1.0393,-1.0416,-1.0423,-1.0435,-1.0455,-1.0469,-1.0489,-1.0497,-1.0512,-1.0522,-1.054,-1.0541,-1.0565,-1.0559,-1.057,-1.0579,-1.058,-1.0582,-1.0582,-1.0585,-1.0592,-1.0593,-1.0585,-1.0585,-1.0584,0,-1.0349,-1.0377,-1.0395,-1.0404,-1.0431,-1.0439,-1.0451,-1.047,-1.0482,-1.05,-1.0508,-1.0528,-1.0539,-1.0554,-1.0571,-1.057,-1.0594,-1.0596,-1.0603,-1.0602,-1.0607,-1.0606,-1.0616,-1.0614,-1.0614,-1.0614,-1.0613,0,-1.0356,-1.0369,-1.0393,-1.0403,-1.0419,-1.0436,-1.0451,-1.0464,-1.0482,-1.0496,-1.0509,-1.0522,-1.0543,-1.0559,-1.0572,-1.0591,-1.0596,-1.0604,-1.0607,-1.0603,-1.0602,-1.061,-1.0609,-1.0614,-1.0614,-1.0614,-1.0614,0,-1.0352,-1.0369,-1.0389,-1.0413,-1.0419,-1.043,-1.0451,-1.0463,-1.0476,-1.0494,-1.0499,-1.0521,-1.054,-1.0558,-1.0585,-1.0593,-1.0613,-1.0617,-1.0606,-1.0608,-1.0613,-1.0613,-1.0628,-1.0631,-1.0627,-1.0627,-1.0627,0,-1.0355,-1.0366,-1.0391,-1.0402,-1.0413,-1.0429,-1.0441,-1.0459,-1.0471,-1.0494,-1.0503,-1.0524,-1.0541,-1.0572,-1.0591,-1.0611,-1.0616,-1.062,-1.0619,-1.0614,-1.0616,-1.0615,-1.0617,-1.062,-1.062,-1.062,-1.062,0,-1.0359,-1.0367,-1.0383,-1.0403,-1.0416,-1.0433,-1.0449,-1.0457,-1.0478,-1.0491,-1.0511,-1.0525,-1.0552,-1.0572,-1.0595,-1.0608,-1.0618,-1.062,-1.0622,-1.0618,-1.0611,-1.0615,-1.0606,-1.0619,-1.0619,-1.0619,-1.0619,-1.0619,-1.036,-1.037,-1.039,-1.0408,-1.0422,-1.0437,-1.0449,-1.0465,-1.0481,-1.0504,-1.0514,-1.0535,-1.0555,-1.0587,-1.06,-1.0617,-1.0619,-1.0622,-1.0623,-1.0624,-1.0623,-1.0609,-1.0621,-1.0621,-1.0621,-1.0621,-1.0621,0,-1.0364,-1.0378,-1.0394,-1.0417,-1.0432,-1.0439,-1.0458,-1.047,-1.0488,-1.0506,-1.0523,-1.0546,-1.0567,-1.0587,-1.0609,-1.0618,-1.0623,-1.0623,-1.0623,-1.0626,-1.062,-1.0616,-1.0619,-1.0619,-1.0619,-1.0619,-1.0619,-1.0619,-1.0369,-1.0387,-1.0397,-1.0422,-1.0436,-1.0456,-1.0466,-1.0481,-1.0496,-1.0521,-1.0538,-1.0551,-1.0571,-1.0594,-1.0613,-1.0619,-1.0626,-1.0625,-1.0632,-1.0626,-1.0626,-1.0626,-1.0622,-1.0627,-1.0627,-1.0636,-1.0636,-1.0636]},{"header":{"parameterUnit":"m.s-1","parameterCategory":1,"la1":30.2991,"la2":30.254,"lo1":-89.0895,"lo2":-89.0444,"dy":0.0017,"dx":0.0017,"nx":28,"ny":28,"refTime":"2024-05-08T03:00:00:Z","depth":0,"parameterNumber":3,"parameterNumberName":"V-component_of_WINDS"},"data":[0,0,0,0,0,0,0,0,0,0,0,0,0,0,0,0,0,0,0,0,0,0,0,0,0,0,0,0,0,0,0,0,0,0,0,0,0,0,0,0,0,0,0,0,0,0,0,0,0,0,0,0,0,0,0,0,0,0,5.1841,5.1841,0,5.1891,5.1892,5.1892,5.1832,5.183,5.1828,5.1825,5.1874,5.1877,5.188,0,0,0,0,0,0,0,0,0,0,0,0,0,5.1688,5.1691,5.1841,5.1841,5.1842,5.1891,5.1892,5.1892,5.1832,5.183,5.1827,5.1824,5.1872,5.1876,5.188,0,0,0,0,0,0,0,0,0,0,0,0,0,5.1748,5.1692,5.184,5.1818,5.1816,5.1891,5.1892,5.1893,5.1833,5.183,5.1826,5.1823,5.1871,5.1876,5.1881,5.1979,0,0,5.1896,5.1899,0,0,0,0,0,0,0,0,5.1744,5.1753,5.1821,5.182,5.1818,5.1852,5.1855,5.1921,5.1834,5.1827,5.1825,5.1821,5.1869,5.1874,5.1891,5.1981,5.1983,5.1897,5.19,5.1902,5.1903,0,0,0,0,0,0,0,5.174,5.1751,5.186,5.1822,5.182,5.1804,5.1809,5.1868,5.1866,5.1827,5.1823,5.183,5.1867,5.1886,5.1891,5.1984,5.1897,5.1901,5.1904,5.1906,5.2157,5.216,0,0,0,0,0,0,5.1739,5.1748,5.1859,5.1862,5.1772,5.1809,5.1815,5.1844,5.1865,5.1865,5.1833,5.1827,5.1879,5.1885,5.1893,5.2008,5.1902,5.1907,5.191,5.2153,5.2158,5.2162,0,0,0,0,0,0,5.1736,5.175,5.1857,5.1804,5.1816,5.1816,5.1849,5.1847,5.1865,5.1869,5.1868,5.1852,5.1876,5.1886,5.1958,5.2009,5.1909,5.1914,5.2149,5.2155,5.216,5.2241,0,0,0,0,0,0,5.1732,5.1749,5.1787,5.1805,5.1819,5.1923,5.1852,5.1851,5.1875,5.1868,5.1887,5.1887,5.1875,5.1951,5.1963,5.2014,5.1918,5.2144,5.2151,5.2158,5.2234,5.2249,5.2261,0,0,0,0,0,5.1727,5.1808,5.179,5.1803,5.1867,5.1926,5.1934,5.1919,5.1879,5.1917,5.1919,5.1887,5.2002,5.1959,5.1972,5.2026,5.2141,5.2149,5.2157,5.2228,5.2246,5.2261,0,0,0,0,0,0,5.1795,5.181,5.179,5.1879,5.1902,5.1916,5.1963,5.1939,5.1972,5.1964,5.1943,5.1947,5.2025,5.2032,5.1984,5.2121,5.2065,5.2076,5.2114,5.2131,5.2144,5.2141,5.1922,0,0,0,0,0,5.182,5.1868,5.1878,5.1955,5.1968,5.1964,5.1989,5.1975,5.1997,5.2006,5.2014,5.2036,5.2077,5.2104,5.2142,5.2235,5.2237,5.2278,5.2292,5.2303,5.2313,5.2362,5.2379,5.2188,5.2188,5.2188,0,0,5.1873,5.1887,5.1918,5.197,5.1986,5.2034,5.1972,5.2026,5.2062,5.2014,5.2084,5.209,5.2112,5.2195,5.2232,5.2204,5.2366,5.2313,5.2322,5.2326,5.2372,5.239,5.2406,5.2194,5.2193,5.2192,0,0,5.1994,5.201,5.2077,5.2094,5.212,5.2116,5.2132,5.215,5.2153,5.2222,5.2187,5.2228,5.23,5.2317,5.2335,5.2463,5.2434,5.2476,5.2548,5.2595,5.261,5.2624,5.2669,5.2685,5.2485,5.2486,5.2486,0,5.2056,5.213,5.2113,5.217,5.2193,5.2154,5.222,5.2237,5.2273,5.2289,5.2258,5.2346,5.2358,5.2445,5.2476,5.2492,5.2509,5.2473,5.261,5.2623,5.2635,5.2678,5.2695,5.2491,5.249,5.249,5.2489,0,5.2204,5.2256,5.2306,5.2343,5.2372,5.2433,5.2425,5.2455,5.2439,5.2439,5.2509,5.2523,5.2563,5.2582,5.2566,5.2666,5.2648,5.2613,5.2556,5.2658,5.2698,5.2714,5.2498,5.2496,5.2494,5.2493,0,0,5.237,5.2398,5.2416,5.2433,5.2458,5.2496,5.2555,5.2595,5.2622,5.2648,5.2696,5.2757,5.2725,5.2746,5.2732,5.2774,5.2873,5.2734,5.2734,5.2759,5.2983,5.3009,5.3028,5.2854,5.2857,5.286,5.2981,0,5.2491,5.2595,5.2582,5.268,5.2727,5.269,5.274,5.2761,5.2762,5.28,5.28,5.2844,5.2799,5.2811,5.2851,5.2853,5.2918,5.2844,5.2898,5.29,5.2893,5.3049,5.3077,5.3191,5.2997,5.2999,5.3001,0,5.2647,5.268,5.2784,5.2802,5.282,5.2867,5.2902,5.294,5.2961,5.2959,5.2982,5.2961,5.3018,5.296,5.3038,5.2988,5.3009,5.3013,5.3017,5.3021,5.2957,5.3057,5.3227,5.3244,5.3026,5.3024,5.3022,0,5.2757,5.2827,5.2898,5.2913,5.2936,5.2969,5.298,5.2998,5.3023,5.3053,5.3069,5.3105,5.3125,5.3153,5.3141,5.31,5.3222,5.3163,5.322,5.3221,5.3248,5.3246,5.3423,5.3262,5.3261,5.3261,5.3261,0,5.2894,5.2959,5.2948,5.2992,5.3063,5.3046,5.3117,5.3122,5.3139,5.3182,5.3151,5.3192,5.3174,5.3213,5.3204,5.327,5.3279,5.3278,5.3275,5.3281,5.3281,5.3294,5.3286,5.3266,5.3265,5.3264,5.3263,0,5.3029,5.3025,5.31,5.3115,5.312,5.3172,5.3184,5.3224,5.3223,5.3278,5.329,5.3287,5.3331,5.3322,5.3371,5.3365,5.3447,5.3434,5.3441,5.3437,5.3496,5.349,5.3687,5.3711,5.3535,5.3536,5.3538,0,5.3117,5.3166,5.3187,5.3214,5.3228,5.3272,5.3298,5.3282,5.331,5.3338,5.3375,5.3417,5.3449,5.3522,5.3524,5.356,5.3548,5.3614,5.3553,5.3557,5.3548,5.3546,5.355,5.3626,5.3628,5.363,5.3631,0,5.3273,5.3269,5.3307,5.3345,5.3377,5.3405,5.3431,5.3455,5.3441,5.3474,5.3519,5.3545,5.3595,5.3637,5.3671,5.368,5.3653,5.365,5.3666,5.3672,5.3674,5.3674,5.3473,5.3646,5.3644,5.3643,5.3643,5.3642,5.3387,5.3429,5.345,5.3494,5.3512,5.3536,5.3575,5.3579,5.3617,5.3657,5.3646,5.3698,5.3717,5.376,5.3773,5.3813,5.3788,5.381,5.3815,5.3821,5.3828,5.3668,5.3819,5.3818,5.3818,5.3817,5.3817,0,5.3542,5.3554,5.3594,5.3631,5.3665,5.3638,5.3665,5.3695,5.3742,5.3762,5.3796,5.3848,5.3888,5.3893,5.393,5.3961,5.395,5.3971,5.3969,5.3971,5.3849,5.3832,5.398,5.398,5.398,5.398,5.398,5.398,5.3626,5.3695,5.3693,5.377,5.3781,5.3833,5.385,5.3872,5.3889,5.3949,5.3983,5.3986,5.4,5.4038,5.4073,5.4074,5.4089,5.4115,5.4111,5.3996,5.398,5.3964,5.3948,5.4119,5.4119,5.423,5.4231,5.4232]}]]